| time (UTC) | temp F | wind direction | speed knots | gust knots | rain 1hr in | rain 24hr in | rain mn in | humidity % | barometer mb |
| 20260503200355 | 69 | 299 | 4.3 | 5.2 | 0.00 | 0.00 | 0.00 | 40 | 1007.3 |
| 20260503195853 | 69 | 323 | 3.5 | 4.3 | 0.00 | 0.00 | 0.00 | 46 | 1007.4 |
| 20260503195349 | 69 | 235 | 9.6 | 12.2 | 0.00 | 0.00 | 0.00 | 37 | 1007.3 |
| 20260503194847 | 69 | 349 | 4.3 | 5.2 | 0.00 | 0.00 | 0.00 | 40 | 1007.3 |
| 20260503194343 | 69 | 287 | 14.8 | 17.4 | 0.00 | 0.00 | 0.00 | 41 | 1007.4 |
| 20260503193839 | 69 | 303 | 9.6 | 9.6 | 0.00 | 0.00 | 0.00 | 39 | 1007.3 |
| 20260503193335 | 69 | 282 | 11.3 | 13.9 | 0.00 | 0.00 | 0.00 | 43 | 1007.4 |
| 20260503192831 | 69 | 309 | 5.2 | 7.0 | 0.00 | 0.00 | 0.00 | 44 | 1007.7 |
| 20260503192328 | 69 | 299 | 9.6 | 11.3 | 0.00 | 0.00 | 0.00 | 41 | 1007.5 |
| 20260503191824 | 68 | 297 | 3.5 | 5.2 | 0.00 | 0.00 | 0.00 | 41 | 1007.6 |
| 20260503191321 | 69 | 338 | 5.2 | 7.8 | 0.00 | 0.00 | 0.00 | 42 | 1007.5 |
| 20260503190818 | 69 | 225 | 5.2 | 7.0 | 0.00 | 0.00 | 0.00 | 37 | 1007.7 |
| 20260503190315 | 68 | 319 | 6.1 | 7.8 | 0.00 | 0.00 | 0.00 | 40 | 1007.6 |
| 20260503185812 | 67 | 289 | 9.6 | 11.3 | 0.00 | 0.00 | 0.00 | 41 | 1007.8 |
| 20260503185308 | 68 | 255 | 6.1 | 7.8 | 0.00 | 0.00 | 0.00 | 39 | 1007.8 |
| 20260503184807 | 67 | 241 | 7.8 | 9.6 | 0.00 | 0.00 | 0.00 | 42 | 1007.8 |
| 20260503184304 | 68 | 289 | 4.3 | 5.2 | 0.00 | 0.00 | 0.00 | 40 | 1007.9 |
| 20260503183759 | 67 | 243 | 3.5 | 4.3 | 0.00 | 0.00 | 0.00 | 40 | 1008.1 |
| 20260503183257 | 67 | 288 | 5.2 | 7.8 | 0.00 | 0.00 | 0.00 | 43 | 1007.9 |
| 20260503182754 | 68 | 267 | 5.2 | 8.7 | 0.00 | 0.00 | 0.00 | 44 | 1007.9 |
| 20260503182253 | 67 | 256 | 1.7 | 3.5 | 0.00 | 0.00 | 0.00 | 39 | 1008.1 |
| 20260503181750 | 67 | 263 | 7.0 | 8.7 | 0.00 | 0.00 | 0.00 | 40 | 1008.0 |
| 20260503181247 | 66 | 215 | 5.2 | 7.0 | 0.00 | 0.00 | 0.00 | 40 | 1008.0 |
| 20260503180743 | 66 | 285 | 9.6 | 12.2 | 0.00 | 0.00 | 0.00 | 42 | 1008.1 |
| 20260503180242 | 66 | 281 | 8.7 | 11.3 | 0.00 | 0.00 | 0.00 | 40 | 1008.1 |
| 20260503175737 | 66 | 234 | 10.4 | 13.0 | 0.00 | 0.00 | 0.00 | 43 | 1008.0 |
| 20260503175231 | 65 | 253 | 8.7 | 8.7 | 0.00 | 0.00 | 0.00 | 40 | 1008.3 |
| 20260503174726 | 67 | 266 | 7.0 | 9.6 | 0.00 | 0.00 | 0.00 | 40 | 1008.4 |
| 20260503174225 | 66 | 197 | 9.6 | 12.2 | 0.00 | 0.00 | 0.00 | 46 | 1008.3 |
| 20260503173724 | 65 | 226 | 7.0 | 7.8 | 0.00 | 0.00 | 0.00 | 43 | 1008.3 |
| 20260503173220 | 66 | 286 | 4.3 | 5.2 | 0.00 | 0.00 | 0.00 | 48 | 1008.4 |
| 20260503172718 | 65 | 237 | 6.1 | 7.8 | 0.00 | 0.00 | 0.00 | 42 | 1008.5 |
| 20260503172215 | 64 | 210 | 8.7 | 9.6 | 0.00 | 0.00 | 0.00 | 42 | 1008.4 |
| 20260503171711 | 65 | 237 | 9.6 | 11.3 | 0.00 | 0.00 | 0.00 | 45 | 1008.4 |
| 20260503171208 | 65 | 278 | 5.2 | 5.2 | 0.00 | 0.00 | 0.00 | 41 | 1008.4 |
| 20260503170706 | 64 | 239 | 8.7 | 11.3 | 0.00 | 0.00 | 0.00 | 44 | 1008.4 |
| 20260503170202 | 64 | 248 | 7.8 | 9.6 | 0.00 | 0.00 | 0.00 | 43 | 1008.5 |
| 20260503160124 | 63 | 289 | 5.2 | 7.0 | 0.00 | 0.00 | 0.00 | 41 | 1008.9 |
| 20260503150554 | 60 | 233 | 10.4 | 13.0 | 0.00 | 0.00 | 0.00 | 49 | 1009.4 |
| 20260503130944 | 54 | 158 | 4.3 | 5.2 | 0.00 | 0.00 | 0.00 | 54 | 1010.4 |
| 20260503130442 | 53 | 173 | 4.3 | 5.2 | 0.00 | 0.00 | 0.00 | 54 | 1010.3 |
| 20260503110337 | 48 | 211 | 3.5 | 4.3 | 0.00 | 0.00 | 0.00 | 62 | 1010.5 |
| 20260503090223 | 49 | 193 | 5.2 | 7.0 | 0.00 | 0.00 | 0.00 | 61 | 1011.4 |
| 20260503081151 | 49 | 216 | 2.6 | 3.5 | 0.00 | 0.00 | 0.00 | 64 | 1011.8 |
| 20260503080647 | 49 | 201 | 3.5 | 4.3 | 0.00 | 0.00 | 0.00 | 62 | 1011.8 |
| 20260503080144 | 48 | 185 | 3.5 | 4.3 | 0.00 | 0.00 | 0.00 | 66 | 1011.9 |
| 20260503072621 | 48 | 285 | 1.7 | 1.7 | 0.00 | 0.00 | 0.00 | 64 | 1012.5 |
| 20260503072118 | 49 | 300 | 1.7 | 1.7 | 0.00 | 0.00 | 0.00 | 63 | 1012.8 |
| 20260503071614 | 50 | 196 | 4.3 | 5.2 | 0.00 | 0.00 | 0.00 | 59 | 1013.2 |
| 20260503071111 | 48 | 203 | 4.3 | 5.2 | 0.00 | 0.00 | 0.00 | 61 | 1013.2 |
| 20260503070608 | 49 | 250 | 2.6 | 3.5 | 0.00 | 0.00 | 0.00 | 60 | 1013.3 |
| 20260503070106 | 49 | 228 | 2.6 | 3.5 | 0.00 | 0.00 | 0.00 | 59 | 1013.3 |
| 20260503055031 | 48 | 248 | 1.7 | 1.7 | 0.00 | 0.00 | 0.00 | 60 | 1013.3 |
| 20260503054527 | 49 | 211 | 3.5 | 3.5 | 0.00 | 0.00 | 0.00 | 59 | 1013.5 |
| 20260503054025 | 48 | 238 | 2.6 | 3.5 | 0.00 | 0.00 | 0.00 | 58 | 1013.4 |
| 20260503053523 | 48 | 209 | 4.3 | 4.3 | 0.00 | 0.00 | 0.00 | 60 | 1013.4 |
| 20260503053020 | 48 | 207 | 2.6 | 3.5 | 0.00 | 0.00 | 0.00 | 61 | 1013.5 |
| 20260503052517 | 47 | 253 | 1.7 | 1.7 | 0.00 | 0.00 | 0.00 | 61 | 1013.5 |
| 20260503052013 | 47 | 212 | 3.5 | 3.5 | 0.00 | 0.00 | 0.00 | 61 | 1013.5 |
| 20260503051509 | 48 | 208 | 3.5 | 4.3 | 0.00 | 0.00 | 0.00 | 61 | 1013.5 |
| 20260503051007 | 49 | 203 | 2.6 | 3.5 | 0.00 | 0.00 | 0.00 | 60 | 1013.7 |
| 20260503050502 | 50 | 205 | 3.5 | 4.3 | 0.00 | 0.00 | 0.00 | 58 | 1013.6 |
| 20260503050000 | 50 | 216 | 2.6 | 3.5 | 0.00 | 0.00 | 0.00 | 56 | 1013.9 |
| 20260503045457 | 50 | 227 | 2.6 | 3.5 | 0.00 | 0.00 | 0.00 | 58 | 1013.8 |
| 20260503044954 | 50 | 211 | 2.6 | 3.5 | 0.00 | 0.00 | 0.00 | 57 | 1013.8 |
| 20260503044450 | 50 | 217 | 3.5 | 4.3 | 0.00 | 0.00 | 0.00 | 55 | 1013.9 |
| 20260503043948 | 51 | 215 | 3.5 | 4.3 | 0.00 | 0.00 | 0.00 | 55 | 1013.9 |
| 20260503043444 | 50 | 200 | 5.2 | 5.2 | 0.00 | 0.00 | 0.00 | 54 | 1013.9 |
| 20260503042941 | 49 | 240 | 1.7 | 1.7 | 0.00 | 0.00 | 0.00 | 56 | 1014.0 |
| 20260503042437 | 49 | 253 | 1.7 | 1.7 | 0.00 | 0.00 | 0.00 | 58 | 1014.0 |
| 20260503041934 | 49 | 204 | 3.5 | 4.3 | 0.00 | 0.00 | 0.00 | 57 | 1014.0 |
| 20260503041431 | 49 | 209 | 3.5 | 4.3 | 0.00 | 0.00 | 0.00 | 57 | 1014.0 |
| 20260503040928 | 49 | 209 | 3.5 | 3.5 | 0.00 | 0.00 | 0.00 | 58 | 1014.1 |
| 20260503040426 | 49 | 209 | 3.5 | 4.3 | 0.00 | 0.00 | 0.00 | 57 | 1014.1 |
| 20260503035923 | 50 | 210 | 3.5 | 4.3 | 0.00 | 0.00 | 0.00 | 56 | 1014.1 |
| 20260503035420 | 50 | 220 | 2.6 | 3.5 | 0.00 | 0.00 | 0.00 | 55 | 1014.1 |
| 20260503034917 | 50 | 205 | 3.5 | 4.3 | 0.00 | 0.00 | 0.00 | 57 | 1014.2 |
| 20260503034415 | 51 | 213 | 3.5 | 4.3 | 0.00 | 0.00 | 0.00 | 57 | 1014.4 |
| 20260503033911 | 51 | 209 | 3.5 | 3.5 | 0.00 | 0.00 | 0.00 | 54 | 1014.3 |
| 20260503033409 | 51 | 250 | 1.7 | 1.7 | 0.00 | 0.00 | 0.00 | 55 | 1014.3 |
| 20260503032907 | 51 | 261 | 1.7 | 1.7 | 0.00 | 0.00 | 0.00 | 53 | 1014.4 |
| 20260503032405 | 51 | 211 | 2.6 | 3.5 | 0.00 | 0.00 | 0.00 | 52 | 1014.5 |
| 20260503031902 | 51 | 246 | 1.7 | 1.7 | 0.00 | 0.00 | 0.00 | 54 | 1014.7 |
| 20260503031400 | 50 | 217 | 2.6 | 3.5 | 0.00 | 0.00 | 0.00 | 56 | 1014.7 |
| 20260503030856 | 50 | 209 | 3.5 | 4.3 | 0.00 | 0.00 | 0.00 | 56 | 1014.8 |
| 20260503030353 | 50 | 220 | 3.5 | 3.5 | 0.00 | 0.00 | 0.00 | 54 | 1014.7 |
| 20260503025849 | 50 | 197 | 3.5 | 3.5 | 0.00 | 0.00 | 0.00 | 56 | 1014.7 |
| 20260503025347 | 50 | 197 | 2.6 | 3.5 | 0.00 | 0.00 | 0.00 | 54 | 1014.9 |
| 20260503024844 | 51 | 197 | 1.7 | 1.7 | 0.00 | 0.00 | 0.00 | 52 | 1015.1 |
| 20260503024340 | 51 | 197 | 2.6 | 3.5 | 0.00 | 0.00 | 0.00 | 51 | 1015.0 |
| 20260503023837 | 51 | 197 | 1.7 | 1.7 | 0.00 | 0.00 | 0.00 | 50 | 1014.9 |
| 20260503023335 | 51 | 208 | 2.6 | 3.5 | 0.00 | 0.00 | 0.00 | 52 | 1014.9 |
| 20260503022832 | 51 | 208 | 3.5 | 3.5 | 0.00 | 0.00 | 0.00 | 48 | 1014.9 |
| 20260503022331 | 49 | 208 | 1.7 | 1.7 | 0.00 | 0.00 | 0.00 | 57 | 1015.1 |
| 20260503021828 | 50 | 208 | 1.7 | 1.7 | 0.00 | 0.00 | 0.00 | 54 | 1015.2 |
| 20260503021325 | 50 | 208 | 0.9 | 0.9 | 0.00 | 0.00 | 0.00 | 56 | 1015.1 |
| 20260503020822 | 49 | 245 | 1.7 | 1.7 | 0.00 | 0.00 | 0.00 | 56 | 1015.2 |
| 20260503020320 | 50 | 279 | 0.9 | 0.9 | 0.00 | 0.00 | 0.00 | 57 | 1015.3 |
| 20260503015816 | 50 | 276 | 0.9 | 0.9 | 0.00 | 0.00 | 0.00 | 54 | 1015.2 |
| 20260503015313 | 51 | 275 | 0.9 | 0.9 | 0.00 | 0.00 | 0.00 | 56 | 1015.4 |
| 20260503014809 | 51 | 279 | 0.9 | 0.9 | 0.00 | 0.00 | 0.00 | 54 | 1015.1 |
| 20260503014307 | 52 | 217 | 1.7 | 1.7 | 0.00 | 0.00 | 0.00 | 51 | 1015.1 |
| 20260503013804 | 53 | 217 | 3.5 | 3.5 | 0.00 | 0.00 | 0.00 | 49 | 1015.1 |
| 20260503013301 | 54 | 267 | 1.7 | 1.7 | 0.00 | 0.00 | 0.00 | 50 | 1015.2 |
| 20260503012758 | 54 | 261 | 1.7 | 1.7 | 0.00 | 0.00 | 0.00 | 44 | 1015.3 |
| 20260503012255 | 55 | 251 | 1.7 | 1.7 | 0.00 | 0.00 | 0.00 | 45 | 1015.3 |
| 20260503011752 | 55 | 254 | 1.7 | 1.7 | 0.00 | 0.00 | 0.00 | 43 | 1015.4 |
| 20260503011249 | 55 | 258 | 0.9 | 1.7 | 0.00 | 0.00 | 0.00 | 44 | 1015.4 |
| 20260503010745 | 55 | 258 | 1.7 | 1.7 | 0.00 | 0.00 | 0.00 | 44 | 1015.4 |
| 20260503010242 | 56 | 247 | 1.7 | 1.7 | 0.00 | 0.00 | 0.00 | 43 | 1015.5 |
| 20260503005740 | 56 | 256 | 0.9 | 1.7 | 0.00 | 0.00 | 0.00 | 42 | 1015.3 |
| 20260503005237 | 57 | 317 | 0.9 | 0.9 | 0.00 | 0.00 | 0.00 | 40 | 1015.6 |
| 20260503004733 | 57 | 261 | 2.6 | 3.5 | 0.00 | 0.00 | 0.00 | 39 | 1015.4 |
| 20260503004231 | 57 | 291 | 1.7 | 1.7 | 0.00 | 0.00 | 0.00 | 39 | 1015.7 |
| 20260503003728 | 57 | 277 | 1.7 | 1.7 | 0.00 | 0.00 | 0.00 | 39 | 1015.8 |
| 20260503003225 | 57 | 293 | 0.9 | 0.9 | 0.00 | 0.00 | 0.00 | 39 | 1015.8 |
| 20260503002722 | 57 | 249 | 3.5 | 4.3 | 0.00 | 0.00 | 0.00 | 38 | 1015.8 |
| 20260503002219 | 57 | 296 | 1.7 | 1.7 | 0.00 | 0.00 | 0.00 | 38 | 1016.0 |
| 20260503001715 | 57 | 269 | 2.6 | 4.3 | 0.00 | 0.00 | 0.00 | 38 | 1015.7 |
| 20260503001212 | 57 | 260 | 2.6 | 3.5 | 0.00 | 0.00 | 0.00 | 39 | 1015.8 |
| 20260503000710 | 58 | 280 | 5.2 | 7.0 | 0.00 | 0.00 | 0.00 | 38 | 1015.7 |
| 20260503000207 | 58 | 314 | 2.6 | 3.5 | 0.00 | 0.00 | 0.00 | 36 | 1015.7 |
| 20260502235703 | 58 | 266 | 7.0 | 9.6 | 0.00 | 0.00 | 0.00 | 37 | 1015.7 |
| 20260502235201 | 59 | 262 | 2.6 | 5.2 | 0.00 | 0.00 | 0.00 | 38 | 1015.8 |
| 20260502234657 | 59 | 327 | 7.0 | 9.6 | 0.00 | 0.00 | 0.00 | 36 | 1016.0 |
| 20260502234155 | 58 | 252 | 4.3 | 7.0 | 0.00 | 0.00 | 0.00 | 37 | 1016.2 |
| 20260502233650 | 59 | 315 | 2.6 | 3.5 | 0.00 | 0.00 | 0.00 | 36 | 1016.0 |
| 20260502233147 | 60 | 308 | 3.5 | 4.3 | 0.00 | 0.00 | 0.00 | 35 | 1016.2 |
| 20260502232643 | 60 | 299 | 2.6 | 3.5 | 0.00 | 0.00 | 0.00 | 38 | 1016.0 |
| 20260502232141 | 60 | 298 | 5.2 | 5.2 | 0.00 | 0.00 | 0.00 | 38 | 1016.0 |
| 20260502231637 | 60 | 285 | 4.3 | 7.0 | 0.00 | 0.00 | 0.00 | 35 | 1016.1 |
| 20260502231135 | 59 | 273 | 3.5 | 4.3 | 0.00 | 0.00 | 0.00 | 38 | 1015.8 |
| 20260502230633 | 60 | 271 | 6.1 | 7.8 | 0.00 | 0.00 | 0.00 | 35 | 1016.2 |
| 20260502230131 | 60 | 330 | 5.2 | 7.0 | 0.00 | 0.00 | 0.00 | 35 | 1016.4 |
| 20260502225626 | 60 | 263 | 4.3 | 4.3 | 0.00 | 0.00 | 0.00 | 34 | 1016.4 |
| 20260502225124 | 60 | 268 | 4.3 | 5.2 | 0.00 | 0.00 | 0.00 | 33 | 1016.3 |
| 20260502224620 | 60 | 308 | 7.8 | 11.3 | 0.00 | 0.00 | 0.00 | 35 | 1016.3 |
| 20260502224117 | 60 | 233 | 2.6 | 4.3 | 0.00 | 0.00 | 0.00 | 35 | 1016.2 |
| 20260502223615 | 61 | 290 | 3.5 | 4.3 | 0.00 | 0.00 | 0.00 | 35 | 1016.4 |
| 20260502223113 | 60 | 285 | 3.5 | 4.3 | 0.00 | 0.00 | 0.00 | 36 | 1016.4 |
| 20260502222610 | 60 | 292 | 7.8 | 9.6 | 0.00 | 0.00 | 0.00 | 35 | 1016.3 |
| 20260502222106 | 60 | 288 | 6.1 | 7.0 | 0.00 | 0.00 | 0.00 | 33 | 1016.5 |
| 20260502221602 | 60 | 243 | 9.6 | 11.3 | 0.00 | 0.00 | 0.00 | 33 | 1016.3 |
| 20260502221100 | 60 | 263 | 10.4 | 15.6 | 0.00 | 0.00 | 0.00 | 34 | 1016.6 |
| 20260502220555 | 60 | 326 | 7.8 | 8.7 | 0.00 | 0.00 | 0.00 | 35 | 1016.6 |
| 20260502220052 | 60 | 273 | 5.2 | 7.0 | 0.00 | 0.00 | 0.00 | 34 | 1016.7 |
| 20260502215549 | 59 | 277 | 3.5 | 4.3 | 0.00 | 0.00 | 0.00 | 32 | 1016.5 |
| 20260502215046 | 59 | 206 | 7.0 | 9.6 | 0.00 | 0.00 | 0.00 | 33 | 1016.7 |
| 20260502214543 | 60 | 226 | 9.6 | 12.2 | 0.00 | 0.00 | 0.00 | 33 | 1016.9 |
| 20260502214041 | 60 | 271 | 7.8 | 8.7 | 0.00 | 0.00 | 0.00 | 34 | 1016.8 |
| 20260502213537 | 60 | 241 | 7.8 | 9.6 | 0.00 | 0.00 | 0.00 | 31 | 1016.7 |
| 20260502213035 | 59 | 255 | 3.5 | 4.3 | 0.00 | 0.00 | 0.00 | 34 | 1016.8 |
| 20260502212534 | 60 | 272 | 1.7 | 3.5 | 0.00 | 0.00 | 0.00 | 38 | 1017.1 |
| 20260502212031 | 60 | 266 | 7.8 | 9.6 | 0.00 | 0.00 | 0.00 | 31 | 1016.8 |
| 20260502211526 | 60 | 248 | 6.1 | 7.0 | 0.00 | 0.00 | 0.00 | 33 | 1016.8 |
| 20260502211024 | 60 | 253 | 8.7 | 12.2 | 0.00 | 0.00 | 0.00 | 32 | 1017.0 |
| 20260502210521 | 60 | 257 | 6.1 | 9.6 | 0.00 | 0.00 | 0.00 | 32 | 1017.0 |
| 20260502210018 | 60 | 236 | 7.8 | 9.6 | 0.00 | 0.00 | 0.00 | 34 | 1017.2 |
| 20260502205514 | 59 | 277 | 5.2 | 7.8 | 0.00 | 0.00 | 0.00 | 32 | 1017.2 |
| 20260502205011 | 58 | 259 | 3.5 | 3.5 | 0.00 | 0.00 | 0.00 | 35 | 1017.4 |
| 20260502204508 | 57 | 265 | 1.7 | 3.5 | 0.00 | 0.00 | 0.00 | 35 | 1017.4 |
| 20260502204006 | 59 | 300 | 5.2 | 7.8 | 0.00 | 0.00 | 0.00 | 32 | 1017.5 |
| 20260502203503 | 60 | 242 | 10.4 | 13.0 | 0.00 | 0.00 | 0.00 | 31 | 1017.3 |
| 20260502203000 | 60 | 276 | 3.5 | 4.3 | 0.00 | 0.00 | 0.00 | 33 | 1017.3 |
| 20260502202456 | 60 | 244 | 9.6 | 13.0 | 0.00 | 0.00 | 0.00 | 33 | 1017.5 |
| 20260502201954 | 60 | 312 | 2.6 | 3.5 | 0.00 | 0.00 | 0.00 | 32 | 1017.5 |
| 20260502201450 | 59 | 272 | 5.2 | 7.0 | 0.00 | 0.00 | 0.00 | 37 | 1017.7 |
| 20260502200947 | 58 | 281 | 9.6 | 12.2 | 0.00 | 0.00 | 0.00 | 32 | 1017.7 |